TimeMST,TemperatureF,Dew PointF,Humidity,Sea Level PressureIn,VisibilityMPH,Wind Direction,Wind SpeedMPH,Gust SpeedMPH,PrecipitationIn,Events,Conditions,WindDirDegrees,DateUTC
12:15 AM,12.2,5.0,73,30.11,10.0,SSE,8.1,-,N/A,,Clear,150,2013-02-04 07:15:00
12:35 AM,12.2,8.6,85,30.12,10.0,SE,11.5,-,N/A,,Clear,140,2013-02-04 07:35:00
12:55 AM,12.2,6.8,79,30.12,10.0,SSE,10.4,-,N/A,,Clear,150,2013-02-04 07:55:00
1:15 AM,14.0,8.6,79,30.12,10.0,SSE,12.7,-,N/A,,Clear,150,2013-02-04 08:15:00
1:55 AM,10.4,3.2,73,30.11,10.0,SSE,13.8,-,N/A,,Clear,150,2013-02-04 08:55:00
3:55 AM,10.4,5.0,79,30.10,10.0,SSE,15.0,-,N/A,,Clear,150,2013-02-04 10:55:00
4:15 AM,10.4,5.0,79,30.10,10.0,SSE,13.8,-,N/A,,Clear,150,2013-02-04 11:15:00
4:35 AM,10.4,5.0,79,30.10,10.0,SE,11.5,-,N/A,,Clear,140,2013-02-04 11:35:00
4:55 AM,10.4,3.2,73,30.11,10.0,SSE,12.7,-,N/A,,Clear,150,2013-02-04 11:55:00
5:15 AM,10.4,5.0,79,30.11,10.0,SSE,12.7,-,N/A,,Clear,150,2013-02-04 12:15:00
5:55 AM,8.6,1.4,73,30.11,10.0,SSE,12.7,-,N/A,,Clear,150,2013-02-04 12:55:00
6:15 AM,8.6,3.2,79,30.11,10.0,SSE,11.5,-,N/A,,Clear,150,2013-02-04 13:15:00
6:35 AM,8.6,3.2,79,30.11,10.0,SSE,13.8,-,N/A,,Clear,150,2013-02-04 13:35:00
6:55 AM,8.6,3.2,79,30.11,10.0,SSE,13.8,-,N/A,,Clear,150,2013-02-04 13:55:00
7:15 AM,8.6,3.2,79,30.12,10.0,SSE,12.7,-,N/A,,Clear,150,2013-02-04 14:15:00
7:35 AM,8.6,3.2,79,30.12,10.0,SSE,11.5,-,N/A,,Clear,150,2013-02-04 14:35:00
8:15 AM,10.4,6.8,85,30.12,10.0,SSE,11.5,-,N/A,,Clear,150,2013-02-04 15:15:00
8:35 AM,8.6,1.4,73,30.13,10.0,SSE,9.2,-,N/A,,Clear,150,2013-02-04 15:35:00
9:15 AM,10.4,3.2,73,30.13,10.0,SSE,5.8,-,N/A,,Clear,160,2013-02-04 16:15:00
9:35 AM,15.8,6.8,68,30.13,10.0,SSE,6.9,-,N/A,,Clear,150,2013-02-04 16:35:00
9:55 AM,17.6,8.6,68,30.14,10.0,SE,6.9,-,N/A,,Clear,130,2013-02-04 16:55:00
10:15 AM,17.6,8.6,68,30.15,10.0,SE,6.9,-,N/A,,Scattered Clouds,140,2013-02-04 17:15:00
10:35 AM,14.0,3.2,62,30.15,10.0,South,3.5,-,N/A,,Mostly Cloudy,180,2013-02-04 17:35:00
10:55 AM,15.8,8.6,73,30.15,10.0,Calm,Calm,-,N/A,,Mostly Cloudy,0,2013-02-04 17:55:00
11:15 AM,10.4,3.2,73,30.14,10.0,Calm,Calm,-,N/A,,Partly Cloudy,0,2013-02-04 18:15:00
11:35 AM,17.6,12.2,79,30.12,10.0,East,4.6,-,N/A,,Partly Cloudy,100,2013-02-04 18:35:00
11:55 AM,19.4,10.4,68,30.11,10.0,ESE,9.2,-,N/A,,Scattered Clouds,110,2013-02-04 18:55:00
12:15 PM,19.4,10.4,68,30.10,10.0,ESE,8.1,-,N/A,,Clear,120,2013-02-04 19:15:00
12:35 PM,21.2,12.2,68,30.10,10.0,East,3.5,-,N/A,,Clear,100,2013-02-04 19:35:00
12:55 PM,21.2,12.2,68,30.09,10.0,SW,5.8,-,N/A,,Mostly Cloudy,220,2013-02-04 19:55:00
1:35 PM,17.6,12.2,79,30.08,10.0,West,4.6,-,N/A,,Clear,260,2013-02-04 20:35:00
1:55 PM,19.4,12.2,74,30.07,10.0,SW,4.6,-,N/A,,Clear,220,2013-02-04 20:55:00
2:15 PM,23.0,14.0,68,30.07,10.0,Calm,Calm,-,N/A,,Clear,0,2013-02-04 21:15:00
2:35 PM,24.8,12.2,59,30.06,10.0,Calm,Calm,-,N/A,,Clear,0,2013-02-04 21:35:00
2:55 PM,21.2,12.2,68,30.06,10.0,Calm,Calm,-,N/A,,Clear,0,2013-02-04 21:55:00
3:15 PM,26.6,14.0,59,30.07,10.0,Calm,Calm,-,N/A,,Mostly Cloudy,0,2013-02-04 22:15:00
3:35 PM,26.6,15.8,64,30.07,10.0,SE,4.6,-,N/A,,Scattered Clouds,140,2013-02-04 22:35:00
3:55 PM,28.4,15.8,59,30.07,10.0,Calm,Calm,-,N/A,,Clear,0,2013-02-04 22:55:00
4:15 PM,24.8,15.8,69,30.08,10.0,ENE,4.6,-,N/A,,Partly Cloudy,70,2013-02-04 23:15:00
4:35 PM,26.6,14.0,59,30.08,10.0,South,3.5,-,N/A,,Partly Cloudy,190,2013-02-04 23:35:00
4:55 PM,19.4,12.2,74,30.08,10.0,WSW,9.2,-,N/A,,Clear,250,2013-02-04 23:55:00
5:15 PM,21.2,12.2,68,30.09,10.0,West,4.6,-,N/A,,Clear,270,2013-02-05 00:15:00
5:35 PM,23.0,12.2,63,30.09,10.0,WSW,4.6,-,N/A,,Clear,250,2013-02-05 00:35:00
5:55 PM,21.2,10.4,63,30.09,10.0,SE,3.5,-,N/A,,Clear,140,2013-02-05 00:55:00
6:15 PM,24.8,12.2,59,30.09,10.0,ESE,3.5,-,N/A,,Clear,120,2013-02-05 01:15:00
6:35 PM,21.2,12.2,68,30.10,10.0,East,3.5,-,N/A,,Clear,80,2013-02-05 01:35:00
6:55 PM,21.2,12.2,68,30.09,10.0,East,4.6,-,N/A,,Mostly Cloudy,80,2013-02-05 01:55:00
7:15 PM,21.2,12.2,68,30.09,10.0,SE,3.5,-,N/A,,Scattered Clouds,140,2013-02-05 02:15:00
7:55 PM,19.4,12.2,74,30.09,10.0,Calm,Calm,-,N/A,,Clear,0,2013-02-05 02:55:00
8:15 PM,19.4,12.2,74,30.09,10.0,Calm,Calm,-,N/A,,Partly Cloudy,0,2013-02-05 03:15:00
8:35 PM,15.8,8.6,73,30.10,10.0,Calm,Calm,-,N/A,,Partly Cloudy,0,2013-02-05 03:35:00
9:15 PM,17.6,10.4,73,30.10,10.0,Calm,Calm,-,N/A,,Clear,0,2013-02-05 04:15:00
9:35 PM,15.8,8.6,73,30.10,10.0,Calm,Calm,-,N/A,,Clear,0,2013-02-05 04:35:00
9:55 PM,15.8,8.6,73,30.10,10.0,Calm,Calm,-,N/A,,Clear,0,2013-02-05 04:55:00
10:15 PM,12.2,6.8,79,30.10,10.0,SSE,5.8,-,N/A,,Clear,150,2013-02-05 05:15:00
10:35 PM,15.8,8.6,73,30.10,10.0,SE,6.9,-,N/A,,Clear,130,2013-02-05 05:35:00
10:55 PM,17.6,8.6,68,30.10,10.0,ESE,6.9,-,N/A,,Clear,120,2013-02-05 05:55:00
11:15 PM,15.8,6.8,68,30.10,10.0,South,3.5,-,N/A,,Clear,190,2013-02-05 06:15:00
11:35 PM,15.8,10.4,79,30.12,10.0,Calm,Calm,-,N/A,,Clear,0,2013-02-05 06:35:00
11:55 PM,10.4,6.8,85,30.12,10.0,Calm,Calm,-,N/A,,Clear,0,2013-02-05 06:55:00